Find Starlink 5187

NORAD ID: 54065 Int'l Des: 2022-136 Owner: SPXS Country: US Constellation: starlink operational
LEOCIRCULAR

实时位置

正在加载3D地球...

关于 Starlink 5187

正在加载描述...

即将过境

Passes for default location (London). Set your location on the main map for personalized predictions.

高度历史

Loading altitude history...

两行轨道根数

1 54065U 22136Q 26105.90066549 -.00000718 00000-0 -27068-4 0 9992
2 54065 53.2165 176.9272 0001142 84.9616 275.1507 15.08828089192468
Epoch: Apr 15, 2026 • Age: 10 hours

当前状态

高度 545.2 km
速度 7.60 km/s
星下点 51.68°N, 33.66°W
发射日期 Oct 20, 2022
运行时间 3.4 years
类型 internet

技术详情

分类 Payload
质量 305.00 kg
干质量 290.00 kg
总质量 305.00 kg
长度 0.20 m
直径 2.80 m
跨度 9.00 m
形状 Box + pan
制造商 SPXS
平台类型 Starlink
阶段状态 In Orbit
所有者/国家 SPXS/US

Most Searched